Location: Unspecified
(0.0000°N, 0.0000°E)
Time: 06:11:05
(UTC+00:00)

Tiros 1 - Pass Details

Date: 03 October 2020
Orbit: 630 x 663 km, 48.4° (Epoch: 28 October)

Event Time Altitude Azimuth Distance (km) Brightness Sun altitude
Rises 20:38:29 0° 341° (NNW) 2,976 - -42.3°
Reaches altitude 10° 20:41:09 10° 354° (N) 2,067 - -42.9°
Maximum altitude 20:45:07 26° 51° (NE) 1,292 - -43.9°
Drops below altitude 10° 20:49:06 10° 107° (ESE) 2,069 - -44.9°
Sets 20:51:45 0° 120° (ESE) 2,980 - -45.6°
